Lapse_Rate
6.5 6.5 6.5 6.5 6.5 6.5 6.5 6.5 6.5 6.5 6.5 6.5 6.5 6.5 6.7 6.9 7.0 7.1 7.2 7.1 6.8 6.6 5.6 5.0 3.2 2.2 3.2 2.1 0.9 1.3 1.4 0.9 0.4 -1.5 -1.5 -1.8 -2.5 -2.3 -2.3 -2.2 -1.3 -0.1 0.5 1.5
6.5 6.5 6.5 6.5 6.5 6.5 6.5 6.5 6.5 6.5 6.5 6.5 6.8 7.1 7.0 7.1 7.2 7.2 7.4 7.4 7.4 7.1 5.0 4.0 3.3 3.9 3.7 3.7 2.6 1.9 0.8 1.0 -0.7 -0.8 -0.4 -1.1 -0.9 -0.2 0.0 -0.4 -0.1 0.3 0.9 2.3
6.5 6.5 6.5 6.5 6.5 6.5 6.5 6.5 6.5 6.5 6.5 6.5 6.5 6.7 7.0 7.2 7.2 7.2 7.3 7.3 6.7 6.2 5.0 4.4 3.1 4.3 3.7 3.0 1.7 1.3 1.0 1.4 0.6 0.1 -0.2 -0.7 -1.0 -0.9 -0.7 -0.6 0.7 0.9 1.1 2.6
6.5 6.5 6.5 6.5 6.5 6.5 6.5 6.5 6.5 6.5 6.5 6.7 6.8 7.1 7.5 7.6 7.5 7.4 7.2 6.5 6.1 5.4 5.1 4.8 4.2 3.9 4.3 3.8 2.7 2.6 2.3 2.1 0.7 -0.2 0.0 -0.3 -0.7 0.3 1.3 1.8 2.0 1.6 1.1 1.5
6.5 6.5 6.5 6.5 6.5 6.5 6.5 6.5 6.5 6.5 6.5 7.0 7.0 6.8 7.2 7.7 7.9 7.6 6.9 6.4 5.0 5.3 5.5 5.2 4.2 4.6 4.5 3.0 3.0 2.7 3.9 2.8 2.0 1.4 1.9 1.5 1.4 1.9 2.9 3.1 2.7 2.1 2.0 0.9
6.5 6.5 6.5 6.5 6.5 7.1 6.9 6.5 6.7 6.9 6.7 6.8 7.2 6.5 6.5 7.5 7.8 7.0 6.0 5.2 4.7 4.7 5.1 4.1 3.3 3.5 2.8 2.5 3.1 3.2 3.0 2.6 2.6 2.5 2.6 2.1 1.6 2.4 3.2 3.2 2.9 2.8 1.6 0.7
6.5 6.5 6.5 6.5 6.9 7.1 6.5 6.5 6.9 7.1 7.0 6.9 6.6 7.1 7.2 7.5 7.7 7.0 6.2 5.3 4.7 5.1 4.8 4.6 3.9 3.5 3.4 3.2 3.3 4.3 3.1 2.3 2.3 2.8 2.5 2.6 2.2 2.8 3.0 2.9 2.2 2.2 2.2 1.3
6.5 6.5 6.5 7.0 6.7 6.5 6.7 7.0 7.3 7.1 7.1 7.1 7.3 7.3 7.5 7.9 7.8 6.2 5.5 5.0 4.8 4.6 4.6 4.2 3.8 3.7 4.1 3.7 4.3 4.4 3.3 2.7 2.4 2.2 2.5 2.5 2.2 2.0 2.6 2.5 2.3 1.8 2.0 1.6
6.5 6.5 6.8 7.3 7.1 7.3 7.5 7.4 7.3 7.4 7.5 7.5 7.6 7.6 7.7 7.8 7.9 6.4 5.1 4.7 4.9 4.5 4.6 4.5 4.1 4.9 4.5 4.2 4.1 3.6 3.1 2.5 2.6 2.6 3.4 3.0 3.0 2.4 2.7 2.8 3.5 3.3 3.4 2.0
6.5 6.6 6.8 7.2 7.5 7.6 7.5 7.5 7.7 7.5 7.7 7.8 7.6 7.7 7.8 7.8 8.2 7.5 5.6 5.1 4.8 4.6 4.6 4.2 4.2 4.7 4.1 4.3 4.6 4.4 3.7 3.3 3.4 3.3 3.2 3.1 4.2 4.7 4.8 4.4 3.7 4.0 5.0 3.7
6.5 6.7 7.0 7.2 7.0 6.9 7.5 7.5 7.8 7.1 7.3 7.6 7.9 7.6 7.5 7.7 7.8 7.7 7.5 6.2 5.6 5.1 4.8 4.5 4.7 4.8 4.9 4.6 4.7 5.1 4.7 4.3 4.2 4.5 3.4 3.5 3.9 4.5 4.8 5.2 4.9 4.1 4.7 5.4
6.5 6.8 6.9 7.0 6.8 6.8 7.1 6.9 7.1 7.8 7.8 6.9 7.1 7.5 7.9 7.9 8.0 7.3 6.8 7.0 6.2 5.8 5.3 4.9 5.0 5.1 4.8 4.9 5.1 4.9 4.8 4.6 4.5 4.5 4.0 3.4 3.2 4.0 4.1 2.7 2.9 2.6 2.8 2.9
6.8 5.9 5.9 6.4 6.0 6.5 6.8 6.1 6.2 6.6 7.2 7.6 7.5 7.6 7.5 7.9 7.7 6.8 7.0 7.0 6.7 5.9 5.2 4.3 4.0 4.0 4.2 4.8 5.1 4.1 4.1 4.1 4.2 3.8 3.7 3.3 2.8 2.4 2.5 3.9 2.8 1.6 2.1 1.8
6.7 6.2 6.7 6.2 6.9 6.8 5.9 6.0 6.2 6.3 6.8 7.5 8.0 8.3 8.0 7.8 7.1 6.7 6.4 6.6 6.8 6.3 5.8 5.7 5.5 4.7 4.4 4.8 5.0 4.3 4.7 4.4 4.3 4.2 3.8 3.3 3.0 2.9 2.5 1.9 1.7 1.4 1.6 1.0
5.0 5.0 4.6 4.7 5.7 5.8 6.3 6.6 6.1 6.3 7.6 7.9 8.2 8.1 7.7 7.0 6.4 6.0 5.9 6.1 6.3 6.1 5.4 5.2 5.1 4.9 5.0 5.3 5.6 5.0 4.9 5.0 4.6 4.4 4.0 3.3 3.2 3.0 2.9 2.4 1.7 1.0 0.9 0.9
5.5 5.3 5.6 5.3 5.3 5.5 6.0 6.3 6.6 7.2 7.6 7.1 6.9 7.7 7.1 6.7 6.1 5.5 5.0 4.9 4.9 4.7 4.7 4.1 4.6 5.0 4.9 4.8 5.3 5.5 5.4 4.6 4.1 4.2 3.8 3.4 3.2 3.0 2.9 2.9 2.3 1.8 0.6 0.6
5.9 6.4 6.7 6.2 6.0 5.9 5.8 6.0 6.4 6.5 6.5 6.2 6.0 6.3 6.5 6.1 5.3 4.5 4.1 4.4 4.6 4.4 4.4 4.2 4.3 4.9 4.8 5.2 5.5 5.7 5.8 5.5 4.3 4.3 3.7 3.5 3.3 3.1 3.3 3.2 3.3 2.8 2.4 0.7
5.5 6.0 6.8 6.5 5.9 5.8 5.8 5.8 5.7 5.5 5.2 5.2 4.7 3.5 2.2 2.0 3.0 2.9 2.6 3.6 3.5 3.7 3.3 3.4 4.2 4.7 4.8 5.3 5.9 6.1 5.9 5.7 5.0 4.4 3.9 3.2 3.6 3.4 3.1 3.0 3.1 3.3 3.3 2.1
4.5 4.5 5.1 5.4 5.6 5.2 4.9 4.7 4.4 3.6 2.8 2.7 2.5 1.0 0.7 -0.0 0.6 0.9 2.0 2.3 2.2 3.0 3.0 3.2 4.1 4.1 4.6 5.1 6.2 6.4 6.0 5.9 5.6 5.1 4.8 3.9 3.2 3.2 3.2 3.2 3.0 2.7 2.7 2.2
3.2 3.1 2.8 1.9 2.3 2.9 1.3 0.8 1.4 0.3 -0.6 1.0 0.4 1.4 1.2 -0.4 -0.2 1.2 2.1 2.6 2.4 3.1 3.5 3.5 3.9 4.2 4.5 4.9 4.8 6.3 5.9 5.7 5.7 5.5 4.4 4.7 4.2 3.4 3.3 2.6 2.9 2.9 2.7 2.3
0.6 0.4 -0.1 -0.3 -1.5 -1.7 -1.3 -2.1 -0.1 0.9 -1.4 -0.4 1.9 0.5 -0.1 -0.8 -0.1 1.4 3.5 4.0 3.2 2.7 3.7 3.6 3.2 3.5 4.7 4.5 5.5 5.5 5.4 5.6 5.4 5.3 5.0 5.2 5.0 4.5 4.0 3.5 3.1 2.8 2.8 2.8
-0.4 -0.5 -1.2 -1.3 -0.4 -1.4 -2.3 -1.2 -0.3 -1.3 -0.7 -1.0 -3.1 -2.6 0.1 1.4 0.9 1.8 0.2 2.5 4.3 1.7 4.1 4.2 3.5 0.2 2.2 3.2 4.6 4.7 4.8 4.9 5.0 5.4 5.2 5.3 5.3 5.1 4.6 4.3 4.0 3.7 3.5 3.2
-0.2 -0.1 -0.5 -0.6 0.4 0.6 -1.3 -0.3 -1.0 0.6 0.4 0.0 0.4 1.4 3.1 3.2 3.6 4.8 4.6 4.3 4.6 3.0 4.4 3.5 0.1 -0.5 0.1 3.0 3.6 3.9 4.0 3.9 4.2 4.3 4.5 4.6 4.8 5.0 5.0 4.6 4.3 4.2 4.1 4.0
-0.3 0.3 0.2 -0.0 -0.2 1.3 1.9 1.4 1.9 1.9 1.3 0.9 0.7 -0.1 3.5 4.4 4.2 4.6 4.9 2.7 1.7 2.4 3.0 2.4 1.1 -0.5 0.4 2.8 3.2 3.4 3.9 4.0 3.9 4.1 4.4 3.5 4.5 4.6 4.6 4.4 4.2 4.3 3.8 3.6
0.4 -0.2 -0.3 0.0 2.1 3.3 3.1 2.7 3.1 3.3 3.6 4.8 4.4 3.7 4.1 4.5 5.5 5.5 5.2 5.0 3.3 4.2 5.2 1.1 0.3 0.2 2.9 3.2 3.0 3.0 3.4 3.5 3.2 4.0 4.0 3.8 3.8 4.0 4.3 4.1 3.4 3.1 3.0 2.9
0.8 1.7 1.9 2.5 4.1 4.2 4.6 4.4 5.4 5.5 5.5 5.3 5.1 4.3 4.2 3.7 4.7 5.0 4.5 2.6 4.6 2.8 5.1 4.2 3.2 3.3 3.7 3.8 3.6 3.3 3.7 4.1 4.1 3.8 3.4 3.7 3.7 3.6 3.3 3.0 2.8 2.6 2.4 2.1
2.2 2.4 3.5 4.0 3.8 4.4 4.9 5.1 5.3 5.6 5.2 5.8 6.1 5.0 4.7 4.0 4.0 4.1 2.0 4.8 4.6 4.1 4.0 3.9 3.6 2.9 3.2 3.4 4.0 3.8 3.7 3.8 1.5 3.5 3.3 3.5 3.5 3.4 3.0 2.7 2.3 1.9 1.6 1.7
Wind_Speed
9 13 2 4 12 15 11 11 5 3 6 10 11 12 12 12 15 17 19 19 18 16 15 16 20 21 18 17 16 13 11 11 14 16 15 14 14 15 15 14 14 15 15 15
4 5 9 3 13 12 10 11 6 5 6 5 9 11 18 18 17 19 18 18 20 20 20 19 20 18 17 17 15 14 14 14 17 16 14 14 13 13 13 14 15 15 15 15
2 5 3 4 8 7 8 14 8 8 6 4 9 14 16 17 18 18 17 18 20 20 18 17 17 16 17 17 17 16 18 17 15 15 15 15 15 15 16 15 15 15 16 16
4 6 2 4 6 3 7 10 10 9 12 7 6 9 14 15 15 17 18 18 17 14 15 15 14 14 13 14 14 16 16 16 17 17 17 17 17 17 15 14 15 14 15 15
2 3 4 4 6 6 4 7 13 12 12 14 3 3 12 13 13 13 13 12 12 12 13 13 14 14 12 14 15 16 15 15 16 16 16 16 17 17 15 13 13 13 13 14
2 2 1 2 13 8 5 2 10 12 11 11 10 6 6 11 14 14 13 13 13 13 12 13 13 13 13 14 14 16 16 15 15 16 16 17 17 17 16 13 12 11 12 10
1 2 4 7 13 8 3 4 8 10 10 8 6 5 6 8 10 11 11 13 13 11 12 13 13 12 12 13 14 13 13 14 14 15 16 17 16 14 16 14 13 13 13 10
1 1 2 10 3 3 3 4 8 8 11 7 7 8 8 9 11 12 12 12 13 11 12 13 15 12 12 13 12 12 11 11 12 13 12 13 16 15 17 16 15 14 14 11
0 1 6 6 7 4 4 3 6 7 7 6 7 7 8 8 9 11 12 11 11 10 11 12 13 12 14 13 13 12 13 12 12 12 12 12 14 15 13 15 13 13 12 11
3 4 5 6 6 5 4 3 5 6 7 7 6 8 8 9 9 9 9 10 10 11 12 13 13 14 13 13 13 13 13 14 12 11 13 12 10 10 10 12 12 12 12 12
3 6 7 5 5 4 3 4 4 7 8 8 7 8 7 8 9 9 9 9 9 10 11 13 13 14 14 14 14 13 12 12 12 10 12 11 11 9 9 11 14 12 12 11
2 4 2 5 5 4 1 5 6 5 6 8 8 7 6 7 8 8 9 11 11 12 12 12 13 14 15 15 15 14 12 10 10 9 9 9 10 10 15 17 23 25 25 18
3 4 8 8 6 1 7 8 7 7 6 6 7 6 8 7 8 9 9 10 11 11 11 11 11 12 14 14 13 13 11 10 8 9 8 9 9 10 10 11 17 22 26 27
8 9 6 4 5 9 9 9 9 8 7 7 7 7 7 8 8 9 10 10 10 10 11 11 12 12 12 13 12 10 10 10 7 7 8 8 9 9 8 10 11 11 18 24
5 6 7 10 8 7 6 6 7 7 7 7 7 7 8 8 9 9 10 10 10 10 11 12 13 14 14 12 11 10 9 8 8 8 8 8 8 8 9 10 10 11 10 16
9 10 9 10 8 7 7 7 7 7 7 7 7 7 7 8 8 9 10 10 10 10 12 11 12 13 12 12 11 9 8 13 10 8 8 9 8 9 9 10 10 11 11 11
11 7 8 7 7 7 7 7 7 6 6 7 7 7 7 7 8 10 10 9 8 9 10 11 12 11 11 11 10 8 7 8 11 8 9 8 8 9 8 9 9 10 10 12
7 8 6 10 9 8 8 8 7 7 6 6 7 7 7 7 7 7 8 8 8 8 12 12 11 11 11 12 10 7 7 7 8 8 8 9 9 8 8 9 9 9 9 11
9 10 10 10 9 9 8 8 7 7 6 6 6 6 5 5 4 3 5 8 9 11 12 11 14 12 11 13 10 7 7 8 8 8 8 9 8 9 8 8 9 9 9 9
10 9 10 9 8 9 8 5 6 6 4 6 5 5 7 6 5 5 4 9 8 5 9 11 12 11 11 11 10 7 8 8 8 7 7 8 8 8 8 10 9 9 9 8
9 9 8 9 7 5 5 4 5 5 4 4 5 4 4 3 4 4 7 7 9 9 9 10 10 9 8 8 8 8 8 7 7 7 7 7 7 8 8 8 8 8 8 8
7 7 8 7 7 6 3 4 6 5 5 4 3 3 4 5 3 3 2 4 5 7 6 7 7 11 9 9 7 7 8 8 7 6 6 6 6 6 7 7 7 7 7 7
8 9 8 7 7 7 5 4 4 5 5 4 4 3 3 3 3 4 4 6 4 5 5 6 9 11 10 8 6 7 7 8 7 6 6 6 6 6 6 6 6 6 6 6
8 8 7 6 7 7 7 5 5 4 3 4 3 3 1 2 2 2 2 2 3 4 4 6 8 10 8 5 6 6 6 6 6 6 5 6 5 5 5 5 5 5 5 5
8 7 7 7 8 6 7 7 5 4 4 4 3 3 2 2 1 1 1 1 2 3 3 6 7 7 6 5 5 5 5 5 5 5 5 5 5 5 5 5 5 5 4 5
10 8 8 8 6 6 5 6 5 5 4 4 3 3 2 1 1 1 1 0 0 1 2 3 4 4 4 4 4 4 4 4 4 4 4 4 4 4 4 4 4 5 5 5
7 6 6 5 4 5 5 6 5 5 5 5 4 4 3 3 2 2 2 1 0 1 1 2 3 3 3 3 3 3 3 3 3 4 4 4 4 4 4 4 4 4 3 3
Wind_Direction
251 263 181 24 29 14 8 350 52 67 26 6 3 357 1 13 16 15 17 19 15 14 18 13 14 13 9 27 28 19 9 358 358 10 3 355 354 343 336 326 313 302 296 284
322 109 170 101 30 30 21 360 62 94 61 22 359 13 22 19 14 13 11 13 14 14 15 12 11 4 6 12 17 15 12 2 10 4 351 354 346 334 331 326 316 307 300 291
299 354 342 64 15 37 55 35 360 22 356 16 29 30 24 17 16 13 13 8 9 11 11 7 7 0 2 2 4 6 13 4 1 354 352 353 348 345 339 330 318 313 302 294
299 322 94 118 58 37 66 48 29 32 12 13 101 66 40 30 24 12 5 7 8 5 7 3 3 1 0 2 10 11 7 358 360 358 354 354 353 347 336 328 317 312 305 302
315 323 122 146 32 338 357 56 17 4 16 3 105 205 37 31 29 20 10 5 359 1 3 357 4 2 360 11 13 16 359 0 359 358 352 353 351 346 342 330 328 324 319 315
15 290 210 19 333 328 245 143 9 2 12 12 7 19 29 29 18 12 12 6 6 2 357 0 357 360 5 7 7 10 0 2 357 358 357 359 354 353 347 343 338 336 331 331
352 277 107 347 323 318 252 19 20 5 357 27 41 50 41 31 26 16 8 7 11 4 10 5 356 1 6 6 4 354 352 357 356 359 2 5 358 357 359 357 357 353 345 345
234 275 201 353 353 50 2 14 20 22 360 61 57 45 32 25 23 16 13 9 10 10 11 8 3 2 4 6 356 354 351 355 356 356 3 3 3 2 5 7 7 4 355 357
297 71 95 66 85 63 35 12 25 25 22 37 43 36 29 22 19 14 11 7 6 6 9 14 6 5 7 355 356 357 1 0 359 355 358 0 6 6 7 11 12 10 3 3
142 141 119 113 101 60 57 43 50 47 48 47 51 32 26 21 17 14 10 11 4 9 13 11 6 8 1 356 357 1 7 5 1 3 4 5 3 9 8 12 14 16 5 5
93 124 121 111 99 76 64 57 75 59 52 52 54 41 25 21 18 14 11 12 16 14 12 9 6 10 6 2 2 6 11 9 5 6 10 9 11 9 12 23 23 20 15 10
184 142 113 115 91 59 280 98 68 58 54 43 43 47 49 43 30 23 14 10 15 16 16 11 12 10 9 6 6 6 8 7 7 1 10 13 14 5 14 27 28 31 26 29
151 120 104 116 79 102 102 98 87 77 63 62 52 52 49 49 38 29 26 21 16 10 4 3 0 6 1 359 4 6 5 3 6 7 11 14 18 16 4 6 29 34 28 31
124 122 108 73 105 98 104 99 94 81 65 58 53 45 46 40 35 31 25 15 14 12 13 10 12 9 359 358 4 2 3 2 11 9 14 23 25 22 20 15 13 12 19 27
73 72 98 119 101 94 101 104 83 65 59 55 47 50 38 36 32 23 12 10 13 16 15 13 11 7 2 3 7 11 12 8 10 15 17 23 30 32 29 30 28 25 18 20
115 107 114 111 110 98 92 85 85 73 65 59 55 50 55 55 42 28 18 16 19 14 5 4 4 355 357 4 6 12 14 14 15 16 18 24 28 34 34 34 36 35 30 20
137 145 144 136 130 114 98 91 92 90 86 78 66 59 58 52 45 31 22 16 17 19 13 9 354 354 356 3 9 14 14 17 15 20 22 24 29 34 37 40 40 41 42 26
100 105 141 147 142 129 113 103 100 93 91 89 88 75 61 52 45 29 12 12 18 22 17 1 354 360 3 5 13 17 22 26 27 27 26 27 26 33 36 43 44 42 37 36
113 114 115 119 122 120 119 112 100 99 92 113 93 79 70 53 40 30 12 29 26 20 1 353 359 10 13 10 15 24 29 33 35 35 34 32 35 34 34 39 43 48 45 41
115 110 110 104 99 118 116 106 117 99 96 109 106 85 73 47 30 40 33 49 27 359 347 3 7 13 12 13 12 31 35 38 38 42 35 39 38 38 39 41 42 43 47 48
125 121 117 117 114 105 105 124 131 115 118 114 104 104 95 78 48 22 41 40 12 1 10 16 21 10 15 11 24 32 33 36 39 40 39 42 45 43 41 40 41 42 44 47
138 131 134 135 132 126 124 121 117 126 125 117 106 121 110 85 83 84 77 33 12 4 21 21 16 12 16 18 33 37 37 36 35 34 36 38 42 47 47 43 43 44 46 46
148 147 145 146 146 138 132 128 130 139 138 141 136 130 89 73 58 59 54 27 24 19 32 31 12 19 17 32 35 39 40 40 37 37 36 36 37 40 44 45 45 43 43 46
150 153 150 144 138 143 148 159 152 147 142 160 173 182 153 129 109 88 99 75 54 37 39 21 19 27 27 32 33 35 35 36 36 36 39 41 40 41 41 37 40 36 38 42
154 144 147 156 162 166 156 161 162 173 176 169 159 157 176 182 64 109 109 70 40 34 36 22 21 22 29 31 32 33 33 33 28 34 34 37 34 35 34 31 28 29 39 42
161 170 174 181 178 172 175 179 200 195 194 193 191 177 176 201 199 172 139 68 70 31 33 17 14 14 18 21 25 26 24 24 27 34 32 33 31 36 31 28 28 31 33 32
165 166 173 184 204 196 192 198 203 214 206 203 200 177 186 185 195 197 165 153 48 306 311 330 348 1 360 356 2 9 6 11 15 21 25 25 23 18 13 12 13 13 13 24